Location: Haliburton Scout Reserve
(45.0900°N, 78.3200°W)
Time: 08:43:07
(UTC-04:00)

IDEFIX/ARIANE 42P - Visible Passes

Search period start: 29 July 2014 00:00
Search period end: 08 August 2014 00:00
Orbit: 785 x 805 km, 98.3° (Epoch: 29 July)

Date Brightness Start Highest point End Pass type
(mag) Time Alt. Az. Time Alt. Az. Time Alt. Az.
29 Jul 4.7 21:56:04 10° SSW 22:00:18 25° W 22:04:32 10° NW visible
30 Jul 3.8 21:27:03 10° S 21:31:59 43° W 21:36:57 10° NNW visible
01 Aug 5.1 22:12:15 10° SW 22:15:45 18° W 22:19:16 10° NW visible
02 Aug 4.3 21:42:47 10° SSW 21:47:23 31° W 21:52:00 10° NNW visible
03 Aug 3.3 21:14:01 10° S 21:19:07 56° W 21:24:14 10° NNW visible
04 Aug 5.2 22:28:57 10° WSW 22:31:15 13° W 22:33:34 10° WNW visible
05 Aug 4.7 21:58:44 10° SW 22:02:48 23° W 22:06:54 10° NW visible
06 Aug 3.9 21:29:37 10° SSW 21:34:29 40° W 21:39:22 10° NNW visible
07 Aug 2.9 21:01:06 10° S 21:06:16 72° WSW 21:11:28 10° NNW visible
